SCP
0 0 0 0 0 0 0 0 0 0 0 0 0 0 0 0 0 0 0 0 0 0 0 0 0 0 0 0 0 0 0 0 0 0 0 0 0 0 0 0 0 0 0
0 0 0 0 0 0 0 0 0 0 0 0 0 0 0 0 0 0 0 0 0 0 0 0 0 0 0 0 0 0 0 0 0 0 0 0 0 0 0 0 0 0 0
0 0 0 0 0 0 0 0 0 0 0 0 0 0 0 0 0 0 0 0 0 0 0 0 0 0 0 0 0 0 0 0 0 0 0 0 0 0 0 0 0 0 0
0 0 0 0 0 0 0 0 0 0 0 0 0 0 0 0 0 0 0 0 0 0 0 0 0 0 0 0 0 0 0 0 0 0 0 0 0 0 0 0 0 0 0
0 0 0 0 0 0 0 0 0 0 0 0 0 0 0 0 0 0 0 0 0 0 0 0 0 0 0 0 0 0 0 0 0 0 0 0 0 0 0 0 0 0 0
0 0 0 0 0 0 0 0 0 0 0 0 0 0 0 0 0 0 0 0 0 0 0 0 0 0 0 0 0 0 0 0 0 0 0 0 0 0 0 0 0 0 0
0 0 0 0 0 0 0 0 0 0 0 0 0 0 0 0 0 0 0 0 0 0 0 0 0 0 0 0 0 0 0 0 0 0 0 0 0 0 0 0 0 0 0
0 0 0 0 0 0 0 0 0 0 0 0 0 0 0 0 0 0 0 0 0 0 0 0 0 0 0 0 0 0 0 0 0 0 0 0 0 0 0 0 0 0 0
0 0 0 0 0 0 0 0 0 0 0 0 0 0 0 0 0 0 0 0 0 0 0 0 0 0 0 0 0 0 0 0 0 0 0 0 0 0 0 0 0 0 0
0 0 0 0 0 0 0 0 0 0 0 0 0 0 0 0 0 0 0 0 0 0 0 0 0 0 0 0 0 0 0 0 0 0 0 0 0 0 0 0 0 0 0
0 0 0 0 0 0 0 0 0 0 0 0 0 0 0 0 0 0 0 0 0 0 0 0 0 0 0 0 0 0 0 0 0 0 0 0 0 0 0 0 0 0 0
0 0 0 0 0 0 0 0 0 0 0 0 0 0 0 0 0 0 0 0 0 0 0 0 0 0 0 0 0 0 0 0 0 0 0 0 0 0 0 0 0 0 0
0 0 0 0 0 0 0 0 0 0 0 0 0 0 0 0 0 0 0 0 0 0 0 0 0 0 0 0 0 0 0 0 0 0 0 0 0 0 0 0 0 0 0
0 0 0 0 0 0 0 0 0 0 0 0 0 0 0 0 0 0 0 0 0 0 0 0 0 0 0 0 0 0 0 0 0 0 0 0 0 0 0 0 0 0 0
0 0 0 0 0 0 0 0 0 0 0 0 0 0 0 0 0 0 0 0 0 0 0 0 0 0 0 0 0 0 0 0 0 0 0 0 0 0 0 0 0 0 0
0 0 0 0 0 0 0 0 0 0 0 0 0 0 0 0 0 0 0 0 0 0 0 0 0 0 0 0 0 0 0 0 0 0 0 0 0 0 0 0 0 0 0
0 0 0 0 0 0 0 0 0 0 0 0 0 0 0 0 0 0 0 0 0 0 0 0 0 0 0 0 0 0 0 0 0 0 0 0 0 0 0 0 0 0 0
0 0 0 0 0 0 0 0 0 0 0 0 0 0 0 0 0 0 0 0 0 0 0 0 0 0 0 0 0 0 0 0 0 0 0 0 0 0 0 0 0 0 0
0 0 0 0 0 0 0 0 0 0 0 0 0 0 0 0 0 0 0 0 0 0 0 0 0 0 0 0 0 0 0 0 0 0 0 0 0 0 0 0 0 0 0
0 0 0 0 0 0 0 0 0 0 0 0 0 0 0 0 0 0 0 0 0 0 0 0 0 0 0 0 0 0 0 0 0 0 0 0 0 0 0 0 0 0 0
0 0 0 0 0 0 0 0 0 0 0 0 0 0 0 0 0 0 0 0 0 0 0 0 0 0 0 0 0 0 0 0 0 0 0 0 0 0 0 0 0 0 0
0 0 0 0 0 0 0 0 0 0 0 0 0 0 0 0 0 0 0 0 0 0 0 0 0 0 0 0 0 0 0 0 0 0 0 0 0 0 0 0 0 0 0
0 0 0 0 0 0 0 0 0 0 0 0 0 0 0 0 0 0 0 0 0 0 0 0 0 0 0 0 0 0 0 0 0 0 0 0 0 0 0 0 0 0 0
0 0 0 0 0 0 0 -0 0 0 0 0 0 0 0 0 0 0 0 0 0 0 0 0 0 0 0 0 0 0 0 0 0 0 0 0 0 0 0 0 0 0 0
0 0 0 0 0 0 -0 0 0 0 0 0 0 0 0 0 0 0 0 0 0 0 0 0 0 0 0 0 0 0 0 0 0 0 0 0 0 0 0 0 0 0 0
0 0 0 0 0 0 0 0 0 0 0 0 0 0 0 0 0 0 0 0 0 0 0 0 0 0 0 0 0 0 0 0 0 0 0 0 0 0 0 0 0 0 0
Wind_Speed_500mb
53 50 44 41 38 37 35 33 30 27 25 23 21 19 20 23 23 19 17 11 5 4 4 4 4 6 10 9 10 13 17 20 23 26 28 31 33 36 39 43 49 54 58
59 55 50 45 42 39 39 37 34 31 28 26 24 23 22 22 21 17 15 12 7 6 3 3 5 8 11 11 15 19 22 25 28 30 33 36 39 41 44 46 48 51 56
64 59 53 50 47 45 43 42 38 35 31 29 27 26 24 22 21 19 15 9 6 4 3 4 3 3 4 9 14 16 21 25 28 32 35 36 39 43 45 47 48 51 55
71 65 59 54 51 49 47 44 41 39 36 32 32 31 29 25 23 20 17 13 10 1 1 4 5 5 4 7 13 18 23 25 30 33 37 37 40 43 47 49 53 51 54
78 69 64 59 55 52 52 48 45 40 39 37 33 31 30 28 24 20 16 13 11 7 2 3 4 7 9 11 12 16 19 22 25 29 35 38 42 45 47 51 53 55 60
82 75 68 65 57 56 54 53 50 45 40 38 34 32 28 25 21 18 15 12 11 8 5 3 3 8 10 13 16 19 20 21 27 32 36 39 41 43 48 53 55 58 62
86 78 73 69 63 59 57 55 52 48 45 44 39 30 25 24 22 17 15 12 10 9 5 2 1 3 11 12 16 18 19 22 27 33 36 37 40 44 49 54 52 49 56
88 84 81 76 69 65 64 62 58 56 50 50 27 26 22 15 19 20 15 14 12 9 5 1 3 5 7 12 16 19 21 23 26 30 32 34 37 40 41 44 48 48 52
93 91 87 77 74 72 69 67 66 61 48 55 45 20 17 17 29 17 18 15 13 8 8 2 2 6 8 11 15 19 20 25 28 29 31 32 36 40 42 44 48 53 55
101 93 86 81 78 75 72 70 66 62 52 54 57 50 33 24 19 21 19 17 17 13 8 4 2 3 6 10 16 20 23 26 28 28 29 32 37 40 42 48 51 52 55
101 95 90 88 82 76 72 66 63 59 58 45 48 52 39 27 24 22 29 25 21 16 9 6 4 1 5 8 11 18 22 25 27 30 33 35 38 40 43 44 47 51 54
108 101 97 91 87 79 76 72 65 60 53 53 49 47 43 35 32 19 26 34 25 19 16 7 3 2 4 7 12 17 23 26 28 31 34 36 39 42 42 45 46 49 52
115 111 101 92 85 79 76 69 59 51 49 61 52 46 42 38 28 24 25 33 26 17 16 13 7 4 1 7 11 17 21 25 29 31 34 38 43 46 44 44 45 47 50
120 111 104 91 88 83 78 73 63 69 70 62 54 46 42 38 34 31 28 32 30 14 12 16 12 5 2 5 8 12 18 25 29 32 34 38 43 45 45 47 50 49 50
122 116 107 100 88 81 75 65 55 65 67 59 52 44 37 35 32 35 32 30 23 23 21 16 13 13 4 5 6 9 13 20 27 30 33 36 38 44 46 48 51 52 50
115 115 111 97 91 77 69 64 66 66 58 50 50 46 35 36 38 31 34 34 30 19 17 23 17 17 12 7 7 8 11 19 25 29 31 34 37 43 45 48 49 53 52
111 109 101 93 80 70 60 57 59 55 56 55 49 39 38 36 33 35 35 32 28 26 30 28 25 21 15 12 7 7 12 13 22 27 30 32 35 42 46 45 47 52 54
101 93 101 95 86 80 68 58 55 57 56 52 47 43 33 35 36 36 34 32 31 29 27 31 24 21 15 11 5 6 8 11 15 25 28 31 34 39 42 44 46 49 52
82 91 93 88 99 86 74 60 61 55 53 49 45 38 44 41 39 36 35 34 34 32 30 25 28 22 17 10 5 6 8 11 12 20 28 32 33 32 40 43 46 49 51
82 90 90 94 94 87 79 73 61 63 63 58 53 47 45 46 43 40 38 35 33 33 31 29 25 24 18 13 11 4 3 3 3 8 22 28 35 40 37 40 45 48 51
92 97 98 92 81 77 76 77 76 72 60 51 47 49 48 47 45 42 39 37 36 34 33 30 29 26 22 16 12 5 5 4 5 8 4 14 13 15 24 32 39 44 46
95 90 92 92 89 86 83 73 71 65 52 51 50 54 49 46 46 43 39 39 39 34 33 27 27 27 23 18 13 8 6 3 8 12 7 9 11 13 18 26 31 37 41
88 88 84 87 84 72 74 73 65 53 53 56 54 51 51 51 47 45 41 39 37 33 34 31 29 29 24 19 14 11 8 6 7 8 8 4 9 12 15 24 32 35 37
83 85 85 73 72 69 67 65 60 52 52 53 53 50 47 47 46 43 45 45 41 38 35 33 32 28 23 19 17 15 12 11 5 5 6 4 9 9 8 14 27 34 35
79 76 73 69 64 65 63 61 60 56 55 54 49 47 43 44 44 45 41 39 38 38 37 33 28 25 22 20 19 16 12 11 9 10 7 2 12 12 13 16 20 31 31
76 74 69 73 69 67 66 59 58 59 60 58 53 50 47 44 42 41 39 37 37 38 35 33 31 26 24 23 21 16 14 13 15 6 7 5 8 10 7 28 22 21 20
Wind_Direction_500mb
211 210 210 213 213 214 205 203 198 194 188 179 171 168 163 152 141 144 159 167 177 150 102 99 29 13 359 354 334 332 327 330 326 323 317 310 304 297 290 285 283 282 278
215 214 216 215 214 212 207 203 201 195 189 180 174 169 169 168 168 163 166 173 193 222 263 337 7 36 38 4 1 348 346 347 344 336 330 328 323 318 316 309 300 290 283
218 216 217 217 216 212 209 206 200 196 189 182 178 174 173 174 175 173 173 170 209 244 300 325 19 46 22 14 7 358 348 348 343 339 335 337 336 333 328 323 317 313 307
219 216 217 218 217 214 209 205 200 195 189 182 176 175 176 177 180 181 182 173 160 103 346 316 315 309 339 353 5 360 354 352 348 345 342 341 336 332 331 327 320 315 311
218 217 217 218 218 213 209 204 198 195 188 182 175 172 172 174 179 184 183 178 177 174 224 270 319 333 337 344 345 352 352 351 349 343 339 336 335 333 333 330 326 321 314
220 217 216 219 216 214 210 206 201 194 190 182 171 167 168 170 173 174 178 173 178 180 171 146 27 330 333 331 329 335 340 344 339 337 337 334 333 334 334 333 331 329 326
221 218 219 219 215 213 212 209 203 196 186 179 166 160 163 173 172 174 171 159 165 163 194 176 77 359 340 326 328 334 341 342 337 332 333 331 332 333 338 339 341 337 334
221 220 219 219 217 213 211 208 204 197 195 189 175 162 163 174 183 184 175 164 163 148 147 268 316 333 344 334 338 340 341 340 338 337 333 334 336 338 342 343 341 335 336
222 220 220 219 217 216 214 210 205 200 198 194 183 178 172 187 168 178 175 170 173 179 169 113 331 359 360 344 348 345 347 345 344 340 339 342 342 337 335 338 340 340 336
217 219 220 220 218 216 213 211 208 205 215 207 198 199 183 183 171 162 182 177 191 180 195 154 4 345 15 358 357 357 351 346 345 343 343 349 347 344 340 335 334 336 331
218 216 218 217 218 215 211 207 208 210 219 215 206 207 202 191 169 167 170 181 180 185 187 170 141 39 16 17 2 353 350 351 347 346 348 352 346 346 343 341 337 334 333
214 214 216 215 216 214 210 212 211 205 208 224 214 215 214 202 198 178 159 175 178 193 195 171 117 88 43 20 3 359 359 358 355 357 355 352 353 354 352 345 339 337 336
214 215 212 213 213 214 211 204 200 203 224 224 217 209 201 199 182 177 167 169 171 178 191 179 141 140 7 30 15 6 15 14 16 14 8 6 2 360 358 355 352 346 341
218 214 211 208 210 209 206 203 203 210 218 216 213 212 203 197 196 185 167 170 156 155 179 203 174 159 128 41 36 25 14 16 16 17 12 6 3 6 5 360 357 352 343
216 213 209 206 206 204 202 203 203 211 207 204 204 200 199 190 191 191 189 175 169 168 178 191 179 167 126 90 69 60 25 21 20 15 11 10 11 9 7 2 358 358 356
215 210 206 200 195 196 196 196 195 197 196 195 192 188 187 193 188 186 188 191 182 168 153 164 174 161 150 134 99 74 33 22 21 17 14 11 9 5 6 1 360 3 6
214 209 196 189 190 192 191 193 192 190 199 192 188 182 193 194 183 193 186 182 175 166 160 170 176 161 154 154 127 86 48 35 6 11 17 16 9 4 6 5 3 6 14
212 201 187 184 182 185 193 194 202 191 192 190 189 192 191 185 192 188 182 175 171 155 166 159 163 159 164 163 139 93 63 25 8 8 19 16 16 7 10 12 11 11 14
201 185 184 189 193 186 180 194 196 193 194 197 194 199 191 199 193 188 184 178 170 164 162 163 158 164 171 160 131 84 36 17 358 0 11 15 12 10 14 20 18 14 17
191 190 193 191 185 183 186 185 189 198 201 202 196 189 193 193 188 185 186 183 175 171 165 165 161 173 168 172 157 128 51 31 347 9 356 10 10 4 12 19 23 20 19
189 188 185 180 174 176 184 189 195 200 203 200 195 192 192 190 187 185 184 184 182 178 173 170 174 176 174 170 169 168 153 252 305 30 45 24 15 14 9 10 22 22 21
185 182 177 176 181 184 189 198 198 199 194 199 199 196 190 188 187 186 188 188 186 183 178 176 184 185 178 177 175 176 173 199 238 322 46 355 26 9 3 8 12 14 20
181 176 178 180 179 188 193 195 194 199 204 200 198 192 189 189 187 186 185 185 187 192 187 186 191 189 183 185 182 188 192 185 207 307 18 325 16 8 7 356 5 8 12
184 180 180 185 181 193 198 193 196 199 204 198 195 194 194 189 187 187 187 188 186 187 191 198 194 196 190 189 189 190 199 205 221 328 23 238 326 324 348 353 356 3 7
182 183 183 187 191 197 194 192 192 195 198 195 191 190 190 193 191 194 194 192 191 194 195 196 196 198 197 204 204 202 205 184 227 287 333 295 318 331 321 337 354 356 5
184 182 184 193 197 194 193 195 193 195 196 193 191 191 192 190 190 192 190 191 193 195 196 196 200 205 210 211 214 215 207 198 223 242 290 291 334 357 305 316 338 357 358
Wind_Speed_850mb
53 50 44 41 38 37 35 33 30 27 25 23 21 19 20 23 23 19 17 11 5 4 4 4 4 6 10 9 10 13 17 20 23 26 28 31 33 36 39 43 49 54 58
59 55 50 45 42 39 39 37 34 31 28 26 24 23 22 22 21 17 15 12 7 6 3 3 5 8 11 11 15 19 22 25 28 30 33 36 39 41 44 46 48 51 56
64 59 53 50 47 45 43 42 38 35 31 29 27 26 24 22 21 19 15 9 6 4 3 4 3 3 4 9 14 16 21 25 28 32 35 36 39 43 45 47 48 51 55
71 65 59 54 51 49 47 44 41 39 36 32 32 31 29 25 23 20 17 13 10 1 1 4 5 5 4 7 13 18 23 25 30 33 37 37 40 43 47 49 53 51 54
78 69 64 59 55 52 52 48 45 40 39 37 33 31 30 28 24 20 16 13 11 7 2 3 4 7 9 11 12 16 19 22 25 29 35 38 42 45 47 51 53 55 60
82 75 68 65 57 56 54 53 50 45 40 38 34 32 28 25 21 18 15 12 11 8 5 3 3 8 10 13 16 19 20 21 27 32 36 39 41 43 48 53 55 58 62
86 78 73 69 63 59 57 55 52 48 45 44 39 30 25 24 22 17 15 12 10 9 5 2 1 3 11 12 16 18 19 22 27 33 36 37 40 44 49 54 52 49 56
88 84 81 76 69 65 64 62 58 56 50 50 27 26 22 15 19 20 15 14 12 9 5 1 3 5 7 12 16 19 21 23 26 30 32 34 37 40 41 44 48 48 52
93 91 87 77 74 72 69 67 66 61 48 55 45 20 17 17 29 17 18 15 13 8 8 2 2 6 8 11 15 19 20 25 28 29 31 32 36 40 42 44 48 53 55
101 93 86 81 78 75 72 70 66 62 52 54 57 50 33 24 19 21 19 17 17 13 8 4 2 3 6 10 16 20 23 26 28 28 29 32 37 40 42 48 51 52 55
101 95 90 88 82 76 72 66 63 59 58 45 48 52 39 27 24 22 29 25 21 16 9 6 4 1 5 8 11 18 22 25 27 30 33 35 38 40 43 44 47 51 54
108 101 97 91 87 79 76 72 65 60 53 53 49 47 43 35 32 19 26 34 25 19 16 7 3 2 4 7 12 17 23 26 28 31 34 36 39 42 42 45 46 49 52
115 111 101 92 85 79 76 69 59 51 49 61 52 46 42 38 28 24 25 33 26 17 16 13 7 4 1 7 11 17 21 25 29 31 34 38 43 46 44 44 45 47 50
120 111 104 91 88 83 78 73 63 69 70 62 54 46 42 38 34 31 28 32 30 14 12 16 12 5 2 5 8 12 18 25 29 32 34 38 43 45 45 47 50 49 50
122 116 107 100 88 81 75 65 55 65 67 59 52 44 37 35 32 35 32 30 23 23 21 16 13 13 4 5 6 9 13 20 27 30 33 36 38 44 46 48 51 52 50
115 115 111 97 91 77 69 64 66 66 58 50 50 46 35 36 38 31 34 34 30 19 17 23 17 17 12 7 7 8 11 19 25 29 31 34 37 43 45 48 49 53 52
111 109 101 93 80 70 60 57 59 55 56 55 49 39 38 36 33 35 35 32 28 26 30 28 25 21 15 12 7 7 12 13 22 27 30 32 35 42 46 45 47 52 54
101 93 101 95 86 80 68 58 55 57 56 52 47 43 33 35 36 36 34 32 31 29 27 31 24 21 15 11 5 6 8 11 15 25 28 31 34 39 42 44 46 49 52
82 91 93 88 99 86 74 60 61 55 53 49 45 38 44 41 39 36 35 34 34 32 30 25 28 22 17 10 5 6 8 11 12 20 28 32 33 32 40 43 46 49 51
82 90 90 94 94 87 79 73 61 63 63 58 53 47 45 46 43 40 38 35 33 33 31 29 25 24 18 13 11 4 3 3 3 8 22 28 35 40 37 40 45 48 51
92 97 98 92 81 77 76 77 76 72 60 51 47 49 48 47 45 42 39 37 36 34 33 30 29 26 22 16 12 5 5 4 5 8 4 14 13 15 24 32 39 44 46
95 90 92 92 89 86 83 73 71 65 52 51 50 54 49 46 46 43 39 39 39 34 33 27 27 27 23 18 13 8 6 3 8 12 7 9 11 13 18 26 31 37 41
88 88 84 87 84 72 74 73 65 53 53 56 54 51 51 51 47 45 41 39 37 33 34 31 29 29 24 19 14 11 8 6 7 8 8 4 9 12 15 24 32 35 37
83 85 85 73 72 69 67 65 60 52 52 53 53 50 47 47 46 43 45 45 41 38 35 33 32 28 23 19 17 15 12 11 5 5 6 4 9 9 8 14 27 34 35
79 76 73 69 64 65 63 61 60 56 55 54 49 47 43 44 44 45 41 39 38 38 37 33 28 25 22 20 19 16 12 11 9 10 7 2 12 12 13 16 20 31 31
76 74 69 73 69 67 66 59 58 59 60 58 53 50 47 44 42 41 39 37 37 38 35 33 31 26 24 23 21 16 14 13 15 6 7 5 8 10 7 28 22 21 20
Wind_Direction_850mb
211 210 210 213 213 214 205 203 198 194 188 179 171 168 163 152 141 144 159 167 177 150 102 99 29 13 359 354 334 332 327 330 326 323 317 310 304 297 290 285 283 282 278
215 214 216 215 214 212 207 203 201 195 189 180 174 169 169 168 168 163 166 173 193 222 263 337 7 36 38 4 1 348 346 347 344 336 330 328 323 318 316 309 300 290 283
218 216 217 217 216 212 209 206 200 196 189 182 178 174 173 174 175 173 173 170 209 244 300 325 19 46 22 14 7 358 348 348 343 339 335 337 336 333 328 323 317 313 307
219 216 217 218 217 214 209 205 200 195 189 182 176 175 176 177 180 181 182 173 160 103 346 316 315 309 339 353 5 360 354 352 348 345 342 341 336 332 331 327 320 315 311
218 217 217 218 218 213 209 204 198 195 188 182 175 172 172 174 179 184 183 178 177 174 224 270 319 333 337 344 345 352 352 351 349 343 339 336 335 333 333 330 326 321 314
220 217 216 219 216 214 210 206 201 194 190 182 171 167 168 170 173 174 178 173 178 180 171 146 27 330 333 331 329 335 340 344 339 337 337 334 333 334 334 333 331 329 326
221 218 219 219 215 213 212 209 203 196 186 179 166 160 163 173 172 174 171 159 165 163 194 176 77 359 340 326 328 334 341 342 337 332 333 331 332 333 338 339 341 337 334
221 220 219 219 217 213 211 208 204 197 195 189 175 162 163 174 183 184 175 164 163 148 147 268 316 333 344 334 338 340 341 340 338 337 333 334 336 338 342 343 341 335 336
222 220 220 219 217 216 214 210 205 200 198 194 183 178 172 187 168 178 175 170 173 179 169 113 331 359 360 344 348 345 347 345 344 340 339 342 342 337 335 338 340 340 336
217 219 220 220 218 216 213 211 208 205 215 207 198 199 183 183 171 162 182 177 191 180 195 154 4 345 15 358 357 357 351 346 345 343 343 349 347 344 340 335 334 336 331
218 216 218 217 218 215 211 207 208 210 219 215 206 207 202 191 169 167 170 181 180 185 187 170 141 39 16 17 2 353 350 351 347 346 348 352 346 346 343 341 337 334 333
214 214 216 215 216 214 210 212 211 205 208 224 214 215 214 202 198 178 159 175 178 193 195 171 117 88 43 20 3 359 359 358 355 357 355 352 353 354 352 345 339 337 336
214 215 212 213 213 214 211 204 200 203 224 224 217 209 201 199 182 177 167 169 171 178 191 179 141 140 7 30 15 6 15 14 16 14 8 6 2 360 358 355 352 346 341
218 214 211 208 210 209 206 203 203 210 218 216 213 212 203 197 196 185 167 170 156 155 179 203 174 159 128 41 36 25 14 16 16 17 12 6 3 6 5 360 357 352 343
216 213 209 206 206 204 202 203 203 211 207 204 204 200 199 190 191 191 189 175 169 168 178 191 179 167 126 90 69 60 25 21 20 15 11 10 11 9 7 2 358 358 356
215 210 206 200 195 196 196 196 195 197 196 195 192 188 187 193 188 186 188 191 182 168 153 164 174 161 150 134 99 74 33 22 21 17 14 11 9 5 6 1 360 3 6
214 209 196 189 190 192 191 193 192 190 199 192 188 182 193 194 183 193 186 182 175 166 160 170 176 161 154 154 127 86 48 35 6 11 17 16 9 4 6 5 3 6 14
212 201 187 184 182 185 193 194 202 191 192 190 189 192 191 185 192 188 182 175 171 155 166 159 163 159 164 163 139 93 63 25 8 8 19 16 16 7 10 12 11 11 14
201 185 184 189 193 186 180 194 196 193 194 197 194 199 191 199 193 188 184 178 170 164 162 163 158 164 171 160 131 84 36 17 358 0 11 15 12 10 14 20 18 14 17
191 190 193 191 185 183 186 185 189 198 201 202 196 189 193 193 188 185 186 183 175 171 165 165 161 173 168 172 157 128 51 31 347 9 356 10 10 4 12 19 23 20 19
189 188 185 180 174 176 184 189 195 200 203 200 195 192 192 190 187 185 184 184 182 178 173 170 174 176 174 170 169 168 153 252 305 30 45 24 15 14 9 10 22 22 21
185 182 177 176 181 184 189 198 198 199 194 199 199 196 190 188 187 186 188 188 186 183 178 176 184 185 178 177 175 176 173 199 238 322 46 355 26 9 3 8 12 14 20
181 176 178 180 179 188 193 195 194 199 204 200 198 192 189 189 187 186 185 185 187 192 187 186 191 189 183 185 182 188 192 185 207 307 18 325 16 8 7 356 5 8 12
184 180 180 185 181 193 198 193 196 199 204 198 195 194 194 189 187 187 187 188 186 187 191 198 194 196 190 189 189 190 199 205 221 328 23 238 326 324 348 353 356 3 7
182 183 183 187 191 197 194 192 192 195 198 195 191 190 190 193 191 194 194 192 191 194 195 196 196 198 197 204 204 202 205 184 227 287 333 295 318 331 321 337 354 356 5
184 182 184 193 197 194 193 195 193 195 196 193 191 191 192 190 190 192 190 191 193 195 196 196 200 205 210 211 214 215 207 198 223 242 290 291 334 357 305 316 338 357 358